Location: Arrecife
(10.5858°N, 67.0742°W)
Time: 14:07:02
(UTC+00:00)

Cosmos 1862 Rocket - Pass Details

Date: 08 December 2021
Orbit: 604 x 633 km, 82.5° (Epoch: 19 January)

Event Time Altitude Azimuth Distance (km) Brightness Sun altitude
Rises 23:38:58 0° 178° (S) 2,895 7.2 -22.0°
Reaches altitude 10° 23:41:14 10° 174° (S) 1,984 6.3 -22.6°
Enters shadow 23:44:40 50° 145° (SE) 791 3.9 -23.4°
